Tracking 19832 objects as of 26-Aug-2019
HD Live streaming from Space Station
objects crossing your sky now

SL-16 DEB

Track SL-16 DEB now!
10-day predictions


NORAD ID: 42248
Int'l Code: 1993-016DC
Perigee: 730.3 km
Apogee: 909.9 km
Inclination: 71.0 °
Period: 101.1 minutes
Semi major axis: 7191 km
RCS: Unknown
Launch date: March 26, 1993
Source: Commonwealth of Independent States (former USSR) (CIS)
Launch site: PLESETSK MISSILE AND SPACE COMPLEX (PKMTR)

Note: This is SATELLITE DEBRIS
aabbcc
Your satellite tracking list
Your tracking list is empty




NASA's NSSDC Master Catalog

Two Line Element Set (TLE):
1 42248U 93016DC  19234.03403483 +.00000972 +00000-0 +41292-3 0  9992
2 42248 070.9665 112.5389 0124874 343.9288 015.7891 14.23676836300502
Source of the keplerian elements: AFSPC